Terminal Aerodrome Forecast
Issued by NWS

Home | Current Version | Previous Version | Text Only | Print | Product List | Glossary On
Versions: 1 2 3 4 5 6 7 8 9 10 11 12 13 14 15
000
FTUS45 KFGZ 290847 AAA
TAFSEZ
TAF AMD
KSEZ 290847Z 2909/3006 17012G18KT P6SM FEW120 BKN200
     FM291200 VRB06KT P6SM SCT120 BKN200
     FM291600 15007KT P6SM SCT080
     FM292000 VRB06KT P6SM BKN080
     FM300300 05008KT P6SM FEW110 SCT200=

USA.gov is the U.S. government's official web portal to all federal, state and local government web resources and services.